Weather History for KNCA - April, 2012

Change the Weather History Date:

Friday, April 6, 2012

  Actual Average Record
Temperature  
Mean Temperature 52 °F -  
Max Temperature 59 °F 69 °F 82 °F (2005)
Min Temperature 42 °F 48 °F 30 °F (2004)
Degree Days  
Heating Degree Days 14    
Growing Degree Days 2 (Base 50)    
Moisture  
Dew Point 43 °F    
Average Humidity 81    
Maximum Humidity 93    
Minimum Humidity 53    
Precipitation  
Precipitation 0.62 in - - ()
Sea Level Pressure  
Sea Level Pressure 29.87 in    
Wind  
Wind Speed 11 mph (NNE)    
Max Wind Speed 16 mph    
Max Gust Speed 23 mph    
Visibility 8 miles    
Events Rain    
Averages and records for this station are not official NWS values.
T = Trace of Precipitation, MM = Missing Value Source: NWS Daily Summary

Daily Weather History Graph

Daily Weather History Graph

Search for Another Location

Airport or City:

Trip Planner

Search our weather history database for the weather conditions in past years. The results will help you decide how hot, cold, wet, or windy it might be!

Date:

Astronomy

Apr. 06, 2012 Rise Set
Actual Time 6:49 AM EDT 7:35 PM EDT
Civil Twilight 6:23 AM EDT 8:00 PM EDT
Nautical Twilight 5:53 AM EDT 8:31 PM EDT
Astronomical Twilight 5:22 AM EDT 9:02 PM EDT
Moon 7:49 PM EDT (4/6) 6:21 AM EDT (4/6)
Length of Visible Light 13h 37m
Length of Day
12h 45m
Full, 100% of the Moon is Illuminated
Apr 6
Full
Apr 6
Full
Apr 13
Last Quarter
Apr 21
New
Apr 29
First Quarter

Hourly Weather History & Observations

Time (EDT) Temp. Windchill Dew Point Humidity Pressure Visibility Wind Dir Wind Speed Gust Speed Precip Events Conditions
12:56 AM 48.0 °F - 44.1 °F 86% 29.83 in 10.0 mi North 9.2 mph - 0.05 in Rain Light Rain
1:56 AM 46.9 °F - 44.1 °F 90% 29.81 in 10.0 mi NNE 11.5 mph - 0.03 in Rain Light Rain
2:31 AM 46.4 °F 40.1 °F 44.6 °F 93% 29.76 in 10.0 mi NE 15.0 mph - 0.01 in Rain Light Rain
2:45 AM 46.4 °F 41.9 °F 42.8 °F 87% 29.76 in 10.0 mi NNE 9.2 mph - 0.02 in Rain Light Rain
2:56 AM 46.9 °F - 43.0 °F 86% 29.77 in 10.0 mi NNE 9.2 mph - 0.02 in Rain Light Rain
3:56 AM 46.9 °F - 42.1 °F 83% 29.77 in 10.0 mi NNE 11.5 mph 20.7 mph 0.00 in Rain Light Rain
4:56 AM 46.9 °F - 43.0 °F 86% 29.77 in 10.0 mi NNE 11.5 mph - 0.00 in Rain Light Rain
5:56 AM 46.9 °F - 41.0 °F 80% 29.78 in 10.0 mi NNE 10.4 mph - 0.00 in Rain Light Rain
6:29 AM 48.2 °F - 42.8 °F 82% 29.77 in 10.0 mi NNE 11.5 mph 19.6 mph 0.00 in Rain Light Rain
6:56 AM 46.0 °F 40.2 °F 43.0 °F 89% 29.80 in 5.0 mi North 12.7 mph - 0.02 in Rain Light Rain
7:18 AM 46.4 °F 41.1 °F 42.8 °F 87% 29.82 in 6.0 mi NNE 11.5 mph 20.7 mph 0.03 in Rain Light Rain
7:26 AM 46.4 °F 41.1 °F 42.8 °F 87% 29.83 in 6.0 mi North 11.5 mph - 0.05 in Rain Light Rain
7:46 AM 46.4 °F 41.1 °F 44.6 °F 93% 29.84 in 4.0 mi North 11.5 mph - 0.11 in Rain Light Rain
7:56 AM 46.0 °F 40.2 °F 44.1 °F 93% 29.85 in 4.0 mi North 12.7 mph - 0.13 in Rain Light Rain
8:04 AM 46.4 °F 39.8 °F 44.6 °F 93% 29.82 in 2.5 mi NNE 16.1 mph 21.9 mph 0.03 in Rain Light Rain
8:15 AM 46.4 °F 40.4 °F 44.6 °F 93% 29.82 in 3.0 mi NNE 13.8 mph - 0.05 in Rain Rain
8:39 AM 46.4 °F 40.7 °F 44.6 °F 93% 29.84 in 3.0 mi North 12.7 mph - 0.15 in Rain Rain
8:56 AM 46.0 °F 40.6 °F 44.1 °F 93% 29.85 in 3.0 mi NNE 11.5 mph - 0.17 in Rain Light Rain
9:03 AM 46.4 °F 41.1 °F 44.6 °F 93% 29.85 in 7.0 mi North 11.5 mph - 0.01 in Rain Light Rain
9:30 AM 46.4 °F 40.7 °F 44.6 °F 93% 29.85 in 10.0 mi North 12.7 mph 20.7 mph 0.02 in Rain Light Rain
9:56 AM 48.0 °F - 44.1 °F 86% 29.87 in 10.0 mi North 15.0 mph 20.7 mph 0.02 in Rain Light Rain
10:56 AM 46.9 °F - 44.1 °F 90% 29.90 in 4.0 mi North 13.8 mph - 0.07 in Rain Rain
11:56 AM 48.0 °F - 45.0 °F 89% 29.89 in 10.0 mi NNE 13.8 mph - 0.07 in Rain Light Rain
12:56 PM 50.0 °F - 46.0 °F 86% 29.90 in 10.0 mi North 15.0 mph 23.0 mph 0.03 in Rain Light Rain
1:56 PM 51.1 °F - 46.9 °F 86% 29.91 in 10.0 mi North 16.1 mph 23.0 mph 0.01 in   Overcast
2:56 PM 52.0 °F - 45.0 °F 77% 29.91 in 10.0 mi North 15.0 mph 21.9 mph 0.00 in   Overcast
3:56 PM 54.0 °F - 39.9 °F 59% 29.93 in 10.0 mi North 16.1 mph 23.0 mph N/A   Overcast
4:56 PM 55.9 °F - 39.0 °F 53% 29.94 in 10.0 mi NNE 16.1 mph 23.0 mph N/A   Clear
5:56 PM 57.9 °F - 41.0 °F 53% 29.94 in 10.0 mi NNE 10.4 mph - N/A   Clear
6:56 PM 57.0 °F - 42.1 °F 57% 29.96 in 10.0 mi NNE 8.1 mph 17.3 mph N/A   Clear
7:56 PM 53.1 °F - 39.0 °F 59% 29.99 in 10.0 mi North 9.2 mph - N/A   Clear
8:56 PM 52.0 °F - 36.0 °F 54% 30.02 in 10.0 mi North 6.9 mph - N/A   Clear
9:56 PM 50.0 °F - 36.0 °F 59% 30.05 in 10.0 mi North 5.8 mph - N/A   Clear
10:56 PM 46.9 °F - 37.9 °F 71% 30.06 in 10.0 mi NNE 4.6 mph - N/A   Clear
11:56 PM 42.1 °F - 39.9 °F 92% 30.08 in 10.0 mi Calm Calm - N/A   Clear